This is the latest recevied weather packets stored in our database for station/object F4IEI-10. If no packets are shown the sender has not sent any weather packets the latest 10 day(s).
| Time | Temp. | Humidity | Pressure | Rain* | Wind** | Luminosity | Snow |
|---|---|---|---|---|---|---|---|
| 1777354105 | 7.78° C | 85% | 1018.4 hPa | - | - | - | - |
| 1777353205 | 7.78° C | 84% | 1018.4 hPa | - | - | - | - |
| 1777352305 | 7.78° C | 82% | 1018.4 hPa | - | - | - | - |
| 1777351400 | 7.78° C | 75% | 1018.4 hPa | - | - | - | - |
| 1777350504 | 8.33° C | 79% | 1018.4 hPa | - | - | - | - |
| 1777349604 | 8.33° C | 72% | 1018.5 hPa | - | - | - | - |
| 1777348712 | 8.89° C | 69% | 1018.5 hPa | - | - | - | - |
| 1777347804 | 8.33° C | 72% | 1018.6 hPa | - | - | - | - |
| 1777346904 | 8.33° C | 72% | 1018.7 hPa | - | - | - | - |
| 1777346005 | 8.33° C | 76% | 1018.6 hPa | - | - | - | - |
| 1777345105 | 8.33° C | 71% | 1018.7 hPa | - | - | - | - |
| 1777344205 | 7.78° C | 76% | 1018.7 hPa | - | - | - | - |
| 1777343304 | 7.22° C | 72% | 1018.8 hPa | - | - | - | - |
| 1777342405 | 7.22° C | 88% | 1019 hPa | - | - | - | - |
| 1777341511 | 6.67° C | 83% | 1019.2 hPa | - | - | - | - |
| 1777340604 | 7.22° C | 87% | 1019.2 hPa | - | - | - | - |
| 1777339704 | 7.22° C | 87% | 1019.2 hPa | - | - | - | - |
| 1777338804 | 7.22° C | 88% | 1019.5 hPa | - | - | - | - |
| 1777337905 | 7.22° C | 85% | 1019.3 hPa | - | - | - | - |
| 1777337005 | 7.22° C | 83% | 1019.4 hPa | - | - | - | - |
| 1777336104 | 7.22° C | 82% | 1019.4 hPa | - | - | - | - |
| 1777335205 | 7.22° C | 81% | 1019.6 hPa | - | - | - | - |
| 1777334305 | 7.22° C | 77% | 1019.7 hPa | - | - | - | - |
| 1777333405 | 7.22° C | 84% | 1019.7 hPa | - | - | - | - |
| 1777332505 | 7.22° C | 68% | 1019.6 hPa | - | - | - | - |
* Rain since midnight (hover to see other rain measurements)
** Current wind speed in m/s (hover to see current wind gust speed)